Location: Unspecified
(0.0000°N, 0.0000°E)
Time: 16:34:12
(UTC+00:00)

Envisat - Pass Details

Date: 25 September 2020
Orbit: 764 x 766 km, 98.1° (Epoch: 19 September)

Event Time Altitude Azimuth Distance (km) Brightness Sun altitude
Rises 05:20:33 0° 21° (NNE) 3,215 6.5 -7.8°
Reaches altitude 10° 05:22:54 10° 26° (NNE) 2,292 5.8 -7.2°
Maximum altitude 05:27:49 53° 102° (ESE) 937 4.0 -5.9°
Drops below altitude 10° 05:32:45 10° 178° (S) 2,302 5.5 -4.7°
Sets 05:35:06 0° 183° (S) 3,231 6.2 -4.1°
